Regional Weather Roundup
Issued by NWS Mobile, AL

Home | Current Version | Previous Version | Text Only | Print | Product List | Glossary Off
Versions: 1 2 3 4 5 6 7 8 9 10 11 12 13 14 15 16 17 18 19 20 21 22 23 24 25 26 27 28 29 30 31 32 33 34 35 36 37 38 39 40 41 42 43 44 45 46 47 48 49 50

000
ASUS44 KMOB 231410
RWRMOB
REGIONAL WEATHER ROUNDUP
NATIONAL WEATHER SERVICE MOBILE AL
900 AM CDT WED JUL 23 2014

NOTE: "FAIR" INDICATES FEW OR NO CLOUDS BELOW 12,000 FEET WITH NO
      SIGNIFICANT WEATHER AND/OR OBSTRUCTIONS TO VISIBILITY.

  * THESE STATIONS ARE PART OF THE UNIVERSITY OF SOUTH ALABAMA
    MESONET AND ARE NOT UNDER NWS OR FAA QUALITY CONTROL.

ALZ061>064-231500-
COASTAL ALABAMA

CITY           SKY/WX    TMP DP  RH WIND       PRES   REMARKS
MOBILE REG APT MOSUNNY   77  74  90 CALM      30.09S
BROOKLEY FIELD MOSUNNY   77  75  93 N6        30.09R
USA CAMPUS*      N/A     79  73  83 CALM      30.07S
DOG RIVER*       N/A     79  77  94 CALM      30.08S


CITY           SKY/WX    TMP DP  RH WIND       PRES   REMARKS
MOUNT VERNON*    N/A     70  70 100 CALM      30.09S
SARALAND*      NOT AVBL
BAY MINETTE*   NOT AVBL
LOXLEY*          N/A     77  77 100 E2        30.08S
ROBERTSDALE*     N/A     73  68  83 SE5       30.08S
FAIRHOPE*        N/A     81  75  83 E3        30.07S
ELBERTA*         N/A     81  68  65 NE3       30.06F
FOLEY*         NOT AVBL
GRAND BAY*       N/A     79  75  89 NE3       30.06R
DAUPHIN ISLND* NOT AVBL
BON SCOUR NWR* NOT AVBL
GULF SHORES    MOSUNNY   82  76  82 E5        30.07S

$$

ALZ051>060-231500-
INTERIOR SOUTHWEST AND SOUTH CENTRAL ALABAMA

CITY           SKY/WX    TMP DP  RH WIND       PRES   REMARKS
GREENVILLE     SUNNY     79  73  82 CALM      30.10S
EVERGREEN      MOSUNNY   78  74  87 CALM      30.10S
CASTLEBERRY*   NOT AVBL
ATMORE*          N/A     77  75  94 NE2       30.11R
DIXIE*         NOT AVBL
ANDALUSIA/OPP  MOSUNNY   82  73  74 CALM      30.10R
ANDALUSIA*     NOT AVBL
FLORALA APT    PTSUNNY   81  75  83 CALM      30.11S
FLORALA*         N/A     79  73  83 CALM      30.07S

$$

FLZ001>006-231500-
WESTERN FLORIDA PANHANDLE

CITY           SKY/WX    TMP DP  RH WIND       PRES   REMARKS
PENSACOLA      PTSUNNY   79  75  87 CALM      30.07S
NAS PENSACOLA  PTSUNNY   83  75  77 N5        30.06F
MILTON         CLOUDY    76  74  93 CALM      30.08F FOG
WHTNG S FIELD  FOG       79  75  89 CALM      30.08F VSB 1/2


CITY           SKY/WX    TMP DP  RH WIND       PRES   REMARKS
WALNUT HILL*   NOT AVBL
JAY*           NOT AVBL
DUKE FIELD     MOSUNNY   81  79  94 CALM      30.08S
CRESTVIEW      MOSUNNY   80  76  87 CALM      30.10S
VALPARAISO     PTSUNNY   82  73  74 N2        30.07S
DESTIN         MOSUNNY   85  76  74 SE6       30.07S

$$

MSZ076-079-231500-
INTERIOR SOUTHEAST MISSISSIPPI

CITY           SKY/WX    TMP DP  RH WIND       PRES   REMARKS
LEAKESVILLE*     N/A     72  70  94 CALM        N/A
AGRICOLA*      NOT AVBL

$$

MARINE OBSERVATIONS

STATION/POSITION TIME  TEMP    WIND        PRES    WAVE
                       AIR SEA DIR/SP/G            HT/PER
                 (UTC) (F)     (DEG/KT/KT) (MB)    (FT/S)
PASCAGOULA       1400   81      60/  3/  4 1017.9R
PETIT BOIS ISLND 1400   83     120/  7/  9 1018.2F
GRAND BAY        1300   74     360/  5     1019.0R
KATRINA CUT      1300   81     110/  6     1018.6R
CEDAR POINT      1300   80     110/  5     1018.6R
E DAUPHIN ISLAND 1300   80      60/  5/  6 1017.9R
MIDDLE BAY LIGHT 1300   80      40/  5     1017.6R
USCG MOBILE BAY  1400   76 83   60/  3/  4 1017.5R
STATE DOCKS      1400   78 82              1018.2S
MEAHER PARK      1300   79        CALM     1018.0F
WEEKS BAY        1300   67                   N/A
FORT MORGAN      1400   81     110/  4/  6 1017.9R
12 S ORANGE BCH  1400   82 83  100/  4/  6 1018.1R   1/ 4
PENSACOLA BAY    1400   86 83  100/  2/  3 1018.6F
64 S DAUPHIN ISL 1349   81 84  200/  4/ 16 1018.2R
67 S FORT MORGAN 1300   81                 1018.0R

$$

SELECTED LOCATIONS ACROSS THE REGION

CITY           SKY/WX    TMP DP  RH WIND       PRES   REMARKS
NEW ORLEANS    PTSUNNY   80  73  79 N10       30.05S THUNDER
GULFPORT       PTSUNNY   79  71  76 N5        30.06S
PASCAGOULA AP  MOSUNNY   80  74  81 CALM      30.07S
PASCAGOULA*      N/A     81  77  89 NE2       30.06S
HATTIESBURG    FOG       71  70  96 CALM      30.09F VSB 1/2
LAUREL         CLOUDY    72  68  88 E3        30.10S
MERIDIAN       SUNNY     77  71  82 SE3       30.09S
JACKSON        PTSUNNY   79  71  76 CALM      30.08S
MONTGOMERY     SUNNY     81  73  76 CALM      30.10R
TROY           SUNNY     81  73  76 S3        30.11R
KINSTON*       NOT AVBL
GENEVA*          N/A     79  73  83 CALM      30.11S
ASHFORD*       NOT AVBL
DOTHAN         MOSUNNY   80  74  81 CALM      30.14R
PANAMA CITY    SUNNY     83  72  69 SE3       30.08S

$$



USA.gov is the U.S. government's official web portal to all federal, state and local government web resources and services.